Location: Newark
(50.4348°N, 30.5552°E)
Time: 03:34:54
(UTC+00:00)

Altair - Pass Details

Date: 28 January 2020
Orbit: 1502 x 1682 km, 47.2° (Epoch: 18 February)

Event Time Altitude Azimuth Distance (km) Brightness Sun altitude
Rises 08:40:17 0° 265° (W) 4,910 10.0 18.4°
Reaches altitude 10° 08:43:25 10° 264° (W) 3,934 9.5 18.6°
Maximum altitude 08:53:33 76° 181° (S) 1,730 8.4 19.2°
Drops below altitude 10° 09:03:37 10° 99° (E) 3,917 10.1 19.7°
Sets 09:06:45 0° 98° (E) 4,889 10.5 19.8°
